,Output(kWh),Demand(kWh),Import(kWh),Export(kWh),HW(kWh),HWPV(kWh),Output(kWh/d),Demand(kWh/d),Import(kWh/d),Export(kWh/d),HW(kWh/d),HWPV(kWh/d)
08/12/2015,0.007,0.004,0.001,0.003,0,0,0.007,0.004,0.001,0.003,0,0
09/12/2015,3.35,6.593,4.897,1.653,0.857,0.513,3.343,6.589,4.896,1.65,0.857,0.513
10/12/2015,11.52,16.94,11.5,6.076,3.332,2.34,8.17,10.347,6.603,4.423,2.475,1.827
11/12/2015,19.34,26.23,17.4,10.5,5.413,3.746,7.82,9.29,5.9,4.424,2.081,1.406
12/12/2015,26.49,32.16,20.67,14.99,7.778,5.318,7.15,5.93,3.27,4.49,2.365,1.572
13/12/2015,33.52,40.07,25.74,19.18,9.928,6.718,7.03,7.91,5.07,4.19,2.15,1.4
14/12/2015,40.47,55.17,37.49,22.78,11.76,7.89,6.95,15.1,11.75,3.6,1.832,1.172
15/12/2015,47.7,64.18,43.45,26.96,13.85,9.242,7.23,9.01,5.96,4.18,2.09,1.352
16/12/2015,54.59,73.24,49.61,30.95,15.89,10.56,6.89,9.06,6.16,3.99,2.04,1.318
17/12/2015,61.75,89.67,62.5,34.57,17.71,11.72,7.16,16.43,12.89,3.62,1.82,1.16
18/12/2015,69.14,98.44,68.2,38.86,19.88,13.13,7.39,8.77,5.7,4.29,2.17,1.41
19/12/2015,76.56,104.35,71.37,43.51,22.35,14.72,7.42,5.91,3.17,4.65,2.47,1.59
20/12/2015,84.2,109.98,74.18,48.26,24.89,16.38,7.64,5.63,2.81,4.75,2.54,1.66
21/12/2015,91.89,120.17,81.09,52.66,27.18,17.84,7.69,10.19,6.91,4.4,2.29,1.46
22/12/2015,98.8,136.17,93.69,56.18,29.06,18.96,6.91,16,12.6,3.52,1.88,1.12
23/12/2015,105.84,146.56,101,60.13,31.13,20.23,7.04,10.39,7.31,3.95,2.07,1.27
24/12/2015,113.71,157.61,108.34,64.28,33.38,21.65,7.87,11.05,7.34,4.15,2.25,1.42
25/12/2015,121.38,173.41,120.21,68.06,35.34,22.85,7.67,15.8,11.87,3.78,1.96,1.2
26/12/2015,128.23,187.83,131.34,71.63,37.27,23.98,6.85,14.42,11.13,3.57,1.93,1.13
27/12/2015,135.19,199.41,139.76,75.45,39.32,25.22,6.96,11.58,8.42,3.82,2.05,1.24
28/12/2015,142.06,217.38,154.36,78.98,41.29,26.45,6.87,17.97,14.6,3.53,1.97,1.23
29/12/2015,149.99,227.98,161.35,83.3,43.57,27.89,7.93,10.6,6.99,4.32,2.28,1.44
30/12/2015,157.8,240.49,170.17,87.42,45.82,29.33,7.81,12.51,8.82,4.12,2.25,1.44
31/12/2015,164.62,256.74,183.06,90.89,47.69,30.44,6.82,16.25,12.89,3.47,1.87,1.11
01/01/2016,172.47,272.91,195.23,94.74,49.75,31.73,7.85,16.17,12.17,3.85,2.06,1.29
02/01/2016,179.29,284.04,203.3,98.5,51.76,32.94,6.82,11.13,8.07,3.76,2.01,1.21
03/01/2016,186.17,294.85,211.14,102.42,53.86,34.21,6.88,10.81,7.84,3.92,2.1,1.27
04/01/2016,192.85,312.89,225.8,105.7,55.67,35.27,6.68,18.04,14.66,3.28,1.81,1.06
05/01/2016,200.68,325.29,234.52,109.82,57.77,36.57,7.83,12.4,8.72,4.12,2.1,1.3
06/01/2016,208.48,335.45,241.29,114.23,60.25,38.23,7.8,10.16,6.77,4.41,2.48,1.66
07/01/2016,215.46,348.85,251.46,117.93,62.25,39.44,6.98,13.4,10.17,3.7,2,1.21
08/01/2016,223.65,355.7,254.91,122.74,65.07,41.42,8.19,6.85,3.45,4.81,2.82,1.98
09/01/2016,231.55,361.85,257.91,127.51,67.87,43.36,7.9,6.15,3,4.77,2.8,1.94
10/01/2016,238.8,368.65,261.93,131.87,70.17,44.8,7.25,6.8,4.02,4.36,2.3,1.44
11/01/2016,246.94,383.76,273.06,136,72.49,46.43,8.14,15.11,11.13,4.13,2.32,1.63
12/01/2016,254.76,398.81,284.26,139.87,74.5,47.66,7.82,15.05,11.2,3.87,2.01,1.23
13/01/2016,261.91,408.6,291,143.95,76.67,49,7.15,9.79,6.74,4.08,2.17,1.34
14/01/2016,270.3,419.48,297.98,148.37,78.87,50.36,8.39,10.88,6.98,4.42,2.2,1.36
15/01/2016,278.19,431.85,306.73,152.63,80.96,51.73,7.89,12.37,8.75,4.26,2.09,1.37
16/01/2016,286.69,442.77,313.58,157.06,83.43,53.48,8.5,10.92,6.85,4.43,2.47,1.75
17/01/2016,295.23,455.79,322.3,161.31,85.7,55.05,8.54,13.02,8.72,4.25,2.27,1.57
18/01/2016,302.17,468.02,331.35,165.07,87.62,56.26,6.94,12.23,9.05,3.76,1.92,1.21
19/01/2016,309.91,480.27,340.04,169.24,89.66,57.58,7.74,12.25,8.69,4.17,2.04,1.32
20/01/2016,318.76,489.88,345.45,173.88,92.52,59.71,8.85,9.61,5.41,4.64,2.86,2.13
21/01/2016,327.61,503.26,354.2,178.11,94.88,61.34,8.85,13.38,8.75,4.23,2.36,1.63
22/01/2016,336.24,514.68,361.49,182.59,97.4,63.19,8.63,11.42,7.29,4.48,2.52,1.85
23/01/2016,343.51,524.31,367.91,186.65,99.4,64.51,7.27,9.63,6.42,4.06,2,1.32
24/01/2016,351.49,532.02,372.32,191.3,101.59,65.98,7.98,7.71,4.41,4.65,2.19,1.47
25/01/2016,359.24,546.77,383.27,195.25,103.46,67.21,7.75,14.75,10.95,3.95,1.87,1.23
26/01/2016,366.94,556.06,389.21,199.59,105.58,68.65,7.7,9.29,5.94,4.34,2.12,1.44
27/01/2016,374.13,565.26,395.33,203.7,107.56,69.95,7.19,9.2,6.12,4.11,1.98,1.3
28/01/2016,374.21,565.38,395.41,203.74,107.59,69.97,0.08,0.12,0.08,0.04,0.03,0.02
29/01/2016,374.23,565.39,395.42,203.75,107.59,69.97,0.02,0.01,0.01,0.01,0,0
30/01/2016,381.29,574.51,401.56,207.84,109.56,71.3,7.06,9.12,6.14,4.09,1.97,1.33
31/01/2016,391.54,582.63,404.68,213.08,113.53,74.59,10.25,8.12,3.12,5.24,3.97,3.29
01/02/2016,398.94,596.47,415.01,216.97,115.34,75.79,7.4,13.84,10.33,3.89,1.81,1.2
02/02/2016,406.87,606.08,421.23,221.46,117.47,77.27,7.93,9.61,6.22,4.49,2.13,1.48
03/02/2016,416.32,616.11,426.64,226.25,120.73,79.85,9.45,10.03,5.41,4.79,3.26,2.58
04/02/2016,425.14,630.1,436.32,230.5,122.74,81.2,8.82,13.99,9.68,4.25,2.01,1.35
05/02/2016,432.8,640.65,443.51,234.77,124.76,82.56,7.66,10.55,7.19,4.27,2.02,1.36
06/02/2016,440.4,648.93,448.85,239.13,126.78,83.91,7.6,8.28,5.34,4.36,2.02,1.35
07/02/2016,447.51,661.72,458.49,242.92,128.56,85.09,7.11,12.79,9.64,3.79,1.78,1.18
08/02/2016,456.67,674.26,466.85,247.54,131.1,86.95,9.16,12.54,8.36,4.62,2.54,1.86
09/02/2016,464.52,686.38,475.38,251.61,132.96,88.16,7.85,12.12,8.53,4.07,1.86,1.21
10/02/2016,474.43,698.42,482.46,256.15,136.08,90.65,9.91,12.04,7.08,4.54,3.12,2.49
11/02/2016,482.3,713.91,493.93,260.03,137.92,91.87,7.87,15.49,11.47,3.88,1.84,1.22
12/02/2016,492.64,726.26,500.69,264.59,141.29,94.61,10.34,12.35,6.76,4.56,3.37,2.74
13/02/2016,500.65,737.13,508.03,268.88,143.28,96.02,8.01,10.87,7.34,4.29,1.99,1.41
14/02/2016,508.19,748.52,516.23,272.96,145.07,97.22,7.54,11.39,8.2,4.08,1.79,1.2
15/02/2016,517.47,761.3,524.56,277.6,147.25,98.83,9.28,12.78,8.33,4.64,2.18,1.61
16/02/2016,526.54,772.28,531.25,282.32,149.97,100.92,9.07,10.98,6.69,4.72,2.72,2.09
17/02/2016,537.09,779.6,533.18,287.68,154.43,105.05,10.55,7.32,1.93,5.36,4.46,4.13
18/02/2016,544.37,782.94,534.77,293.33,158.06,108.31,7.28,3.34,1.59,5.65,3.63,3.26
19/02/2016,554.52,789.99,536.76,298.67,162.16,111.92,10.15,7.05,1.99,5.34,4.1,3.61
20/02/2016,563.92,804.85,546.89,303.48,165.41,114.65,9.4,14.86,10.13,4.81,3.25,2.73
21/02/2016,571.53,818.79,557.46,307.41,167.17,115.87,7.61,13.94,10.57,3.93,1.76,1.22
22/02/2016,579.84,832.97,567.83,311.61,168.97,117.16,8.31,14.18,10.37,4.2,1.8,1.29
23/02/2016,588.34,842.45,573.54,316.23,171.03,118.63,8.5,9.48,5.71,4.62,2.06,1.47
24/02/2016,597.87,853.61,580.05,320.92,173.66,120.66,9.53,11.16,6.51,4.69,2.63,2.03
25/02/2016,607.77,866.32,587.71,325.52,176.75,123.19,9.9,12.71,7.66,4.6,3.09,2.53
26/02/2016,617.46,879.3,595.74,329.99,179.56,125.42,9.69,12.98,8.03,4.47,2.81,2.23
27/02/2016,627.13,887.02,599.26,335.31,182.34,127.62,9.67,7.72,3.52,5.32,2.78,2.2
28/02/2016,635.61,896.08,604.66,340,184.32,129.02,8.48,9.06,5.4,4.69,1.98,1.4
29/02/2016,644.97,910.17,613.85,344.42,186.45,130.6,9.36,14.09,9.19,4.42,2.13,1.58
01/03/2016,655,920.66,619.3,349.31,189.07,132.64,10.03,10.49,5.45,4.89,2.62,2.04
02/03/2016,663.13,931.63,626.61,353.65,191.02,134.01,8.13,10.97,7.31,4.34,1.95,1.37
03/03/2016,672.39,949.57,639.39,357.67,192.93,135.37,9.26,17.94,12.78,4.02,1.91,1.36
04/03/2016,681.56,962.03,647.35,362.27,195.09,136.95,9.17,12.46,7.96,4.6,2.16,1.58
05/03/2016,691.89,975.52,655.13,366.85,198.17,139.49,10.33,13.49,7.78,4.58,3.08,2.54
06/03/2016,700,981.14,657.6,371.84,200.53,141.25,8.11,5.62,2.47,4.99,2.36,1.76
07/03/2016,708.78,986.95,659.82,377.05,203.17,143.34,8.78,5.81,2.22,5.21,2.64,2.09
08/03/2016,718.63,994.1,662.23,382.12,207.16,146.81,9.85,7.15,2.41,5.07,3.99,3.47
09/03/2016,727.47,999.95,664.5,387.37,209.82,148.94,8.84,5.85,2.27,5.25,2.66,2.13
10/03/2016,735.92,1006,666.84,392.48,212.35,150.89,8.45,6.05,2.34,5.11,2.53,1.95
11/03/2016,743.9,1011,669.21,397.4,214.6,152.54,7.98,5,2.37,4.92,2.25,1.65
12/03/2016,755.36,1018,670.94,403.19,218.97,156.65,11.46,7,1.73,5.79,4.37,4.11
13/03/2016,766.51,1026,672.74,409.12,223.16,160.53,11.15,8,1.8,5.93,4.19,3.88
14/03/2016,778.14,1033,674.77,415.53,226.77,163.65,11.63,7,2.03,6.41,3.61,3.12
15/03/2016,789.99,1040,676.82,422.19,230.03,166.41,11.85,7,2.05,6.66,3.26,2.76
16/03/2016,798.43,1046,679.07,427.44,232.39,168.21,8.44,6,2.25,5.25,2.36,1.8
17/03/2016,807.86,1051,681.06,433.06,235.2,170.44,9.43,5,1.99,5.62,2.81,2.23
18/03/2016,819.4,1059,682.9,439.1,239.31,174.17,11.54,8,1.84,6.04,4.11,3.73
19/03/2016,827.06,1064,685.42,443.9,241.47,175.76,7.66,5,2.52,4.8,2.16,1.59
20/03/2016,835.38,1070,687.67,448.99,243.78,177.48,8.32,6,2.25,5.09,2.31,1.72
21/03/2016,844.32,1084,697.33,453.59,245.83,178.98,8.94,14,9.66,4.6,2.05,1.5
22/03/2016,854.25,1096,704.71,458.38,247.97,180.58,9.93,12,7.38,4.79,2.14,1.6
23/03/2016,865.65,1109,711.12,463.4,251.87,183.96,11.4,13,6.41,5.02,3.9,3.38
30/03/2016,874.33,1122,719.96,467.71,253.58,185.16,8.68,13,8.84,4.31,1.71,1.2
31/03/2016,874.36,1122,720,467.72,253.58,185.16,0.03,0,0.04,0.01,0,0
01/04/2016,876.4,1129,724.74,467.95,254.5,186.01,2.04,7,4.74,0.23,0.92,0.85
02/04/2016,881.44,1139,730.97,468.5,256.23,187.72,5.04,10,6.23,0.55,1.73,1.71
03/04/2016,886.52,1148,735.19,468.99,259.42,190.88,5.08,9,4.22,0.49,3.19,3.16
04/04/2016,890.43,1160,744.35,469.44,260.31,191.77,3.91,12,9.16,0.45,0.89,0.89
05/04/2016,894.29,1169,749.46,469.84,261.11,192.55,3.86,9,5.11,0.4,0.8,0.78
06/04/2016,898.86,1179,755.04,470.18,263.13,194.54,4.57,10,5.58,0.34,2.02,1.99
07/04/2016,903.37,1189,761.68,470.64,264.78,196.14,4.51,10,6.64,0.46,1.65,1.6
08/04/2016,906.56,1198,767.58,471.04,265.19,196.53,3.19,9,5.9,0.4,0.41,0.39
09/04/2016,911.84,1207,770.37,471.78,268.03,199.35,5.28,9,2.79,0.74,2.84,2.82
10/04/2016,916.21,1214,772.41,472.47,270.08,201.37,4.37,7,2.04,0.69,2.05,2.02
11/04/2016,922.7,1226,777.44,473.56,273.79,205.07,6.49,12,5.03,1.09,3.71,3.7
12/04/2016,926.22,1240,787.2,473.89,274.14,205.38,3.52,14,9.76,0.33,0.35,0.31
13/04/2016,933.04,1252,793.16,474.32,277.61,208.82,6.82,12,5.96,0.43,3.47,3.44
14/04/2016,939.19,1264,798.6,474.85,280.97,212.13,6.15,12,5.44,0.53,3.36,3.31
15/04/2016,944.13,1274,803.39,475.31,282.35,213.48,4.94,10,4.79,0.46,1.38,1.35
16/04/2016,946.74,1281,806.95,475.72,282.91,214.04,2.61,7,3.56,0.41,0.56,0.56
17/04/2016,950.77,1291,812.11,476.27,284.74,215.86,4.03,10,5.16,0.55,1.83,1.82
18/04/2016,957.74,1305,819.44,477,288.46,219.51,6.97,14,7.33,0.73,3.72,3.65
19/04/2016,961.83,1314,824.25,477.47,289.48,220.51,4.09,9,4.81,0.47,1.02,1
20/04/2016,970.23,1324,827.72,480.34,293.23,224.14,8.4,10,3.47,2.87,3.75,3.63
21/04/2016,980.41,1337,832.71,482.51,297.22,228.07,10.18,13,4.99,2.17,3.99,3.93
22/04/2016,988.35,1352,838.81,483.22,300.7,231.44,7.94,15,6.1,0.71,3.48,3.37
23/04/2016,991.03,1365,849.5,483.26,300.72,231.46,2.68,13,10.69,0.04,0.02,0.02
24/04/2016,998.05,1377,856.58,484.03,304.41,235.1,7.02,12,7.08,0.77,3.69,3.64
25/04/2016,1004,1386,862.53,484.85,307.36,238,5.95,9,5.95,0.82,2.95,2.9
26/04/2016,1008,1394,867.81,485.21,308.75,239.37,4,8,5.28,0.36,1.39,1.37
27/04/2016,1017,1406,874.27,487.61,312.63,243.21,9,12,6.46,2.4,3.88,3.84
28/04/2016,1026,1422,883.81,488.85,316.48,246.89,9,16,9.54,1.24,3.85,3.68
29/04/2016,1034,1437,892.94,490.27,319.71,249.91,8,15,9.13,1.42,3.23,3.02
30/04/2016,1043,1451,901.34,492.74,323.61,253.72,9,14,8.4,2.47,3.9,3.81
01/05/2016,1053,1469,912.43,493.91,327.45,257.47,10,18,11.09,1.17,3.84,3.75
02/05/2016,1064,1484,919.92,497.02,331.2,261.18,11,15,7.49,3.11,3.75,3.71
03/05/2016,1070,1497,927.31,497.5,334,263.93,6,13,7.39,0.48,2.8,2.75
04/05/2016,1078,1512,935.9,498.04,337.51,267.3,8,15,8.59,0.54,3.51,3.37
05/05/2016,1089,1529,945.53,501.22,341.31,270.86,11,17,9.63,3.18,3.8,3.56
06/05/2016,1101,1543,951.99,504.8,345.01,274.53,12,14,6.46,3.58,3.7,3.67
07/05/2016,1110,1554,957.31,507.3,348.61,278.05,9,11,5.32,2.5,3.6,3.52
08/05/2016,1118,1566,963.32,508.09,352.18,281.54,8,12,6.01,0.79,3.57,3.49
09/05/2016,1129,1577,969,512.73,355.95,285.31,11,11,5.68,4.64,3.77,3.77
10/05/2016,1135,1590,978.18,513.12,358.51,287.84,6,13,9.18,0.39,2.56,2.53
11/05/2016,1138,1601,986.22,513.26,358.63,287.95,3,11,8.04,0.14,0.12,0.11
12/05/2016,1142,1612,994.2,513.5,359.18,288.49,4,11,7.98,0.24,0.55,0.54
13/05/2016,1151,1628,1003,514.57,362.98,292.22,9,16,8.8,1.07,3.8,3.73
14/05/2016,1163,1639,1008,519.86,367.18,296.37,12,11,5,5.29,4.2,4.15
15/05/2016,1174,1649,1012,524.53,371.35,300.52,11,10,4,4.67,4.17,4.15
16/05/2016,1186,1659,1015,529.02,375.57,304.72,12,10,3,4.49,4.22,4.2
17/05/2016,1197,1668,1019,533.96,379.62,308.75,11,9,4,4.94,4.05,4.03
18/05/2016,1204,1677,1022,535.41,383.14,312.24,7,9,3,1.45,3.52,3.49
19/05/2016,1208,1684,1027,535.73,384.15,313.23,4,7,5,0.32,1.01,0.99
20/05/2016,1215,1693,1030,537.05,387.71,316.77,7,9,3,1.32,3.56,3.54
21/05/2016,1223,1703,1033,539.15,391.24,320.27,8,10,3,2.1,3.53,3.5
22/05/2016,1227,1709,1038,539.51,391.88,320.9,4,6,5,0.36,0.64,0.63
23/05/2016,1234,1718,1041,540.87,395.43,324.42,7,9,3,1.36,3.55,3.52
24/05/2016,1246,1733,1048,545.4,399.19,328.14,12,15,7,4.53,3.76,3.72
25/05/2016,1256,1746,1056,549.45,402.86,331.8,10,13,8,4.05,3.67,3.66
26/05/2016,1260,1756,1063,549.59,403.13,332.04,4,10,7,0.14,0.27,0.24
27/05/2016,1272,1770,1070,553.72,406.92,335.76,12,14,7,4.13,3.79,3.72
28/05/2016,1283,1785,1078,556.35,410.4,339.22,11,15,8,2.63,3.48,3.46
29/05/2016,1293,1803,1087,557.67,414.08,342.81,10,18,9,1.32,3.68,3.59
30/05/2016,1303,1815,1093,560.84,417.8,346.46,10,12,6,3.17,3.72,3.65
31/05/2016,1306,1827,1102,560.88,417.83,346.47,3,12,9,0.04,0.03,0.01
01/06/2016,1307,1840,1115,560.88,417.83,346.47,1,13,13,0,0,0
02/06/2016,1308,1853,1128,560.88,417.83,346.47,1,13,13,0,0,0
03/06/2016,1313,1865,1136,561.26,418.9,347.52,5,12,8,0.38,1.07,1.05
04/06/2016,1316,1878,1146,561.44,419.1,347.73,3,13,10,0.18,0.2,0.21
05/06/2016,1320,1885,1152,561.67,419.36,347.98,4,7,6,0.23,0.26,0.25
06/06/2016,1330,1896,1158,565.88,422.52,351.12,10,11,6,4.21,3.16,3.14
07/06/2016,1343,1912,1166,569.3,426.12,354.63,13,16,8,3.42,3.6,3.51
08/06/2016,1350,1925,1172,569.9,428.08,356.59,7,13,6,0.6,1.96,1.96
09/06/2016,1358,1939,1180,570.43,431.58,360.07,8,14,8,0.53,3.5,3.48
10/06/2016,1370,1954,1186,573.66,435.08,363.55,12,15,6,3.23,3.5,3.48
11/06/2016,1378,1964,1192,575.85,438.43,366.9,8,10,6,2.19,3.35,3.35
12/06/2016,1385,1973,1195,576.55,440.85,369.3,7,9,3,0.7,2.42,2.4
13/06/2016,1390,1981,1199,577.08,442.92,371.33,5,8,4,0.53,2.07,2.03
14/06/2016,1394,1988,1203,577.48,443.98,372.38,4,7,4,0.4,1.06,1.05
15/06/2016,1400,1997,1207,578.18,446.67,375.04,6,9,4,0.7,2.69,2.66
16/06/2016,1410,2013,1214,580.35,450.29,378.59,10,16,7,2.17,3.62,3.55
17/06/2016,1415,2029,1226,580.51,450.71,378.98,5,16,12,0.16,0.42,0.39
18/06/2016,1422,2043,1234,581.04,454.03,382.27,7,14,8,0.53,3.32,3.29
19/06/2016,1427,2057,1244,581.33,454.77,382.98,5,14,10,0.29,0.74,0.71
20/06/2016,1433,2067,1248,582.08,457.51,385.7,6,10,4,0.75,2.74,2.72
21/06/2016,1438,2075,1252,582.91,459.69,387.62,5,8,4,0.83,2.18,1.92
22/06/2016,1444,2084,1255,583.8,462.98,390.87,6,9,3,0.89,3.29,3.25
23/06/2016,1449,2091,1258,584.36,464.07,391.96,5,7,3,0.56,1.09,1.09
24/06/2016,1451,2095,1261,584.87,464.72,392.61,2,4,3,0.51,0.65,0.65
25/06/2016,1459,2104,1264,586.95,468.48,396.24,8,9,3,2.08,3.76,3.63
26/06/2016,1467,2113,1268,590.1,472.09,399.81,8,9,4,3.15,3.61,3.57
27/06/2016,1475,2121,1271,592.04,475.57,403.22,8,8,3,1.94,3.48,3.41
28/06/2016,1485,2130,1274,596.89,479.54,407.11,10,9,3,4.85,3.97,3.89
29/06/2016,1493,2139,1277,599.61,482.73,410.27,8,9,3,2.72,3.19,3.16
30/06/2016,1496,2145,1281,599.92,482.99,410.51,3,6,4,0.31,0.26,0.24
01/07/2016,1503,2154,1284,601.53,486.49,413.98,7,9,3,1.61,3.5,3.47
02/07/2016,1509,2162,1288,602.17,488.98,416.39,6,8,4,0.64,2.49,2.41
03/07/2016,1517,2171,1292,605.16,492.69,420.06,8,9,4,2.99,3.71,3.67
04/07/2016,1526,2185,1297,606.85,496.2,423.49,9,14,5,1.69,3.51,3.43
05/07/2016,1532,2198,1305,607.38,498.28,425.53,6,13,8,0.53,2.08,2.04
06/07/2016,1542,2213,1311,609.16,502.94,430.07,10,15,6,1.78,4.66,4.54
07/07/2016,1553,2232,1320,609.82,506.61,433.58,11,19,9,0.66,3.67,3.51
08/07/2016,1562,2246,1325,611.02,510.98,437.86,9,14,5,1.2,4.37,4.28
09/07/2016,1569,2257,1331,611.81,513.45,440.3,7,11,6,0.79,2.47,2.44
10/07/2016,1576,2269,1337,612.34,514.68,441.51,7,12,6,0.53,1.23,1.21
11/07/2016,1583,2281,1342,612.97,518.88,445.59,7,12,5,0.63,4.2,4.08
12/07/2016,1588,2289,1346,613.28,520.32,446.96,5,8,4,0.31,1.44,1.37
13/07/2016,1589,2293,1349,613.36,520.34,446.97,1,4,3,0.08,0.02,0.01
14/07/2016,1595,2307,1357,613.75,522.6,449.18,6,14,8,0.39,2.26,2.21
15/07/2016,1605,2323,1365,615.92,527.25,453.77,10,16,8,2.17,4.65,4.59
16/07/2016,1609,2333,1371,616.16,527.94,454.44,4,10,6,0.24,0.69,0.67
17/07/2016,1618,2347,1377,617.5,532.13,458.54,9,14,6,1.34,4.19,4.1
18/07/2016,1627,2360,1382,618.29,536.11,462.45,9,13,5,0.79,3.98,3.91
19/07/2016,1639,2376,1389,621.17,540.7,466.99,12,16,7,2.88,4.59,4.54
20/07/2016,1650,2390,1395,624.97,545.31,471.53,11,14,6,3.8,4.61,4.54
21/07/2016,1660,2406,1401,626.65,549.99,476.11,10,16,6,1.68,4.68,4.58
22/07/2016,1668,2422,1406,627.21,553.12,479.2,8,16,5,0.56,3.13,3.09
23/07/2016,1673,2438,1415,627.49,554.52,480.6,5,16,9,0.28,1.4,1.4
24/07/2016,1683,2455,1421,629.56,559.23,485.16,10,17,6,2.07,4.71,4.56
25/07/2016,1689,2473,1430,630.02,561.24,487.11,6,18,9,0.46,2.01,1.95
26/07/2016,1698,2491,1438,630.69,565.76,491.49,9,18,8,0.67,4.52,4.38
27/07/2016,1706,2509,1446,631.27,568.7,494.34,8,18,8,0.58,2.94,2.85
28/07/2016,1712,2525,1453,631.71,571.46,497.04,6,16,7,0.44,2.76,2.7
29/07/2016,1718,2540,1460,632.14,572.68,498.21,6,15,7,0.43,1.22,1.17
30/07/2016,1722,2555,1469,632.45,573.46,498.98,4,15,9,0.31,0.78,0.77
31/07/2016,1728,2570,1476,633.05,575.46,500.97,6,15,7,0.6,2,1.99
01/08/2016,1734,2585,1483,633.56,577.88,503.33,6,15,7,0.51,2.42,2.36
02/08/2016,1738,2599,1491,633.65,577.92,503.36,4,14,8,0.09,0.04,0.03
03/08/2016,1741,2614,1500,633.69,577.98,503.4,3,15,9,0.04,0.06,0.04
04/08/2016,1748,2630,1507,634.17,580.88,506.16,7,16,7,0.48,2.9,2.76
05/08/2016,1755,2644,1511,634.81,583.65,508.9,7,14,4,0.64,2.77,2.74
06/08/2016,1764,2661,1518,636.04,588.23,513.43,9,17,7,1.23,4.58,4.53
07/08/2016,1775,2678,1524,639.86,593.02,518.18,11,17,6,3.82,4.79,4.75
08/08/2016,1784,2697,1533,640.52,597.18,522.13,9,19,9,0.66,4.16,3.95
09/08/2016,1791,2715,1542,640.93,599.7,524.6,7,18,9,0.41,2.52,2.47
10/08/2016,1798,2732,1550,641.42,603.41,528.21,7,17,8,0.49,3.71,3.61
11/08/2016,1804,2747,1557,641.77,604.7,529.46,6,15,7,0.35,1.29,1.25
12/08/2016,1812,2763,1564,642.34,607.88,532.6,8,16,7,0.57,3.18,3.14
13/08/2016,1822,2781,1570,643.92,612.89,537.55,10,18,6,1.58,5.01,4.95
14/08/2016,1828,2797,1578,644.38,615.28,539.88,6,16,8,0.46,2.39,2.33
15/08/2016,1834,2814,1587,644.97,616.46,541.05,6,17,9,0.59,1.18,1.17
16/08/2016,1844,2831,1593,647.17,621.43,545.96,10,17,6,2.2,4.97,4.91
17/08/2016,1853,2851,1602,648.05,625.33,549.83,9,20,9,0.88,3.9,3.87
18/08/2016,1862,2869,1610,648.7,629.29,553.69,9,18,8,0.65,3.96,3.86
19/08/2016,1868,2884,1617,649.26,631.25,555.64,6,15,7,0.56,1.96,1.95
20/08/2016,1870,2896,1622,649.44,631.46,555.85,2,12,5,0.18,0.21,0.21
21/08/2016,1875,2910,1626,650.09,634.41,558.72,5,14,4,0.65,2.95,2.87
22/08/2016,1882,2924,1630,650.71,638.11,562.35,7,14,4,0.62,3.7,3.63
23/08/2016,1888,2937,1634,651.4,641.57,565.76,6,13,4,0.69,3.46,3.41
24/08/2016,1895,2951,1639,654.23,644.86,569.03,7,14,5,2.83,3.29,3.27
25/08/2016,1903,2964,1643,657,647.35,571.48,8,13,4,2.77,2.49,2.45
26/08/2016,1907,2976,1647,657.62,648.83,572.95,4,12,4,0.62,1.48,1.47
27/08/2016,1915,2991,1654,660.57,652.19,576.29,8,15,7,2.95,3.36,3.34
28/08/2016,1920,3007,1663,660.86,652.86,576.95,5,16,9,0.29,0.67,0.66
29/08/2016,1924,3022,1672,661.07,653.63,577.7,4,15,9,0.21,0.77,0.75
30/08/2016,1930,3040,1681,661.42,655.96,580.03,6,18,9,0.35,2.33,2.33
31/08/2016,1936,3058,1691,661.72,658.82,582.82,6,18,10,0.3,2.86,2.79
01/09/2016,1941,3073,1699,662.1,659.89,583.87,5,15,8,0.38,1.07,1.05
02/09/2016,1948,3092,1709,662.45,663.14,587.1,7,19,10,0.35,3.25,3.23
03/09/2016,1950,3104,1714,662.46,663.14,587.1,2,12,5,0.01,0,0
04/09/2016,1952,3116,1719,662.86,664.02,587.97,2,12,5,0.4,0.88,0.87
05/09/2016,1956,3128,1723,663.18,664.54,588.48,4,12,4,0.32,0.52,0.51
06/09/2016,1958,3140,1727,663.53,665.08,589.03,2,12,4,0.35,0.54,0.55
07/09/2016,1961,3152,1732,663.74,665.16,589.11,3,12,5,0.21,0.08,0.08
08/09/2016,1965,3165,1736,664.16,667.31,591.24,4,13,4,0.42,2.15,2.13
09/09/2016,1969,3179,1741,664.52,669.97,593.82,4,14,5,0.36,2.66,2.58
10/09/2016,1972,3191,1745,664.84,670.59,594.41,3,12,4,0.32,0.62,0.59
11/09/2016,1973,3206,1756,664.84,670.59,594.41,1,15,11,0,0,0
12/09/2016,1977,3224,1767,665.06,672.52,596.3,4,18,11,0.22,1.93,1.89
13/09/2016,1982,3241,1777,665.31,673.77,597.53,5,17,10,0.25,1.25,1.23
14/09/2016,1986,3258,1787,665.57,675.67,599.41,4,17,10,0.26,1.9,1.88
15/09/2016,1991,3275,1797,665.9,677.8,601.52,5,17,10,0.33,2.13,2.11
16/09/2016,1995,3290,1805,666.16,679.26,602.97,4,15,8,0.26,1.46,1.45
17/09/2016,1997,3306,1816,666.17,679.29,602.99,2,16,11,0.01,0.03,0.02
18/09/2016,1998,3320,1827,666.17,679.3,602.99,1,14,11,0,0.01,0
19/09/2016,2001,3336,1837,666.38,679.54,603.22,3,16,10,0.21,0.24,0.23
20/09/2016,2004,3352,1847,666.48,679.62,603.3,3,16,10,0.1,0.08,0.08
21/09/2016,2005,3369,1860,666.49,679.63,603.3,1,17,13,0.01,0.01,0
22/09/2016,2009,3384,1869,666.66,680.07,603.74,4,15,9,0.17,0.44,0.44
23/09/2016,2013,3400,1879,666.84,680.91,604.55,4,16,10,0.18,0.84,0.81
24/09/2016,2017,3416,1888,667.04,682.92,606.54,4,16,9,0.2,2.01,1.99
25/09/2016,2020,3431,1897,667.38,684.14,607.74,3,15,9,0.34,1.22,1.2
26/09/2016,2025,3448,1907,667.62,686.11,609.63,5,17,10,0.24,1.97,1.89
27/09/2016,2028,3464,1917,667.75,686.39,609.9,3,16,10,0.13,0.28,0.27
28/09/2016,2030,3479,1927,667.77,686.43,609.93,2,15,10,0.02,0.04,0.03
29/09/2016,2033,3495,1937,667.99,686.88,610.38,3,16,10,0.22,0.45,0.45
30/09/2016,2037,3511,1947,668.3,688.32,611.8,4,16,10,0.31,1.44,1.42
01/10/2016,2041,3529,1958,668.54,690.34,613.77,4,18,11,0.24,2.02,1.97
02/10/2016,2045,3544,1966,668.85,692.74,616.13,4,15,8,0.31,2.4,2.36
03/10/2016,2050,3564,1980,669.05,694.52,617.85,5,20,14,0.2,1.78,1.72
04/10/2016,2054,3581,1989,669.32,697.15,620.48,4,17,9,0.27,2.63,2.63
05/10/2016,2059,3598,1999,669.65,699.57,622.85,5,17,10,0.33,2.42,2.37
06/10/2016,2063,3612,2005,669.99,702.88,626.13,4,14,6,0.34,3.31,3.28
07/10/2016,2067,3626,2009,670.29,704.86,628.05,4,14,4,0.3,1.98,1.92
08/10/2016,2068,3638,2015,670.44,704.94,628.13,1,12,6,0.15,0.08,0.08
09/10/2016,2071,3650,2019,670.65,705.76,628.95,3,12,4,0.21,0.82,0.82
10/10/2016,2074,3664,2024,670.88,707.57,630.74,3,14,5,0.23,1.81,1.79
11/10/2016,2077,3677,2030,671.09,709.62,632.77,3,13,6,0.21,2.05,2.03
12/10/2016,2081,3691,2035,671.5,712.68,635.79,4,14,5,0.41,3.06,3.02
13/10/2016,2084,3704,2040,671.83,713.91,637,3,13,5,0.33,1.23,1.21
14/10/2016,2087,3717,2044,672.11,715.31,638.37,3,13,4,0.28,1.4,1.37
15/10/2016,2090,3729,2049,672.52,715.59,638.64,3,12,5,0.41,0.28,0.27
16/10/2016,2094,3743,2054,672.87,718.18,641.21,4,14,5,0.35,2.59,2.57
17/10/2016,2098,3757,2059,673.14,720.53,643.55,4,14,5,0.27,2.35,2.34
18/10/2016,2101,3769,2063,673.46,722.14,645.12,3,12,4,0.32,1.61,1.57
19/10/2016,2105,3783,2068,673.84,724.73,647.68,4,14,5,0.38,2.59,2.56
20/10/2016,2108,3798,2076,674.05,725.42,648.36,3,15,8,0.21,0.69,0.68
21/10/2016,2110,3817,2091,674.15,725.81,648.72,2,19,15,0.1,0.39,0.36
22/10/2016,2113,3833,2103,674.26,726.6,649.51,3,16,12,0.11,0.79,0.79
23/10/2016,2116,3853,2118,674.36,727.01,649.91,3,20,15,0.1,0.41,0.4
24/10/2016,2120,3873,2131,674.56,728.33,651.17,4,20,13,0.2,1.32,1.26
25/10/2016,2121,3888,2143,674.56,728.33,651.17,1,15,12,0,0,0
26/10/2016,2123,3913,2164,674.59,728.41,651.24,2,25,21,0.03,0.08,0.07
27/10/2016,2126,3930,2176,674.86,729.66,652.48,3,17,12,0.27,1.25,1.24
28/10/2016,2130,3946,2187,675.03,730.99,653.8,4,16,11,0.17,1.33,1.32
29/10/2016,2131,3963,2201,675.05,731,653.81,1,17,14,0.02,0.01,0.01